User: anonymous   Login
Location: Unspecified
(0.0000°N, 0.0000°E)
Time: 00:52:11
(UTC+00:00)
Language:

STSS DEMO 1 (USA 208) - Orbit

View from above orbital plane
View from above orbital plane
View from above satellite
View from above satellite

Ground track
Ground track

The orbit data is extracted from the following two-line orbital elements,

1 35937U 09052A   17145.95932131 0.00000000  00000-0  00000-0 0    07
2 35937  57.9867  83.8506 0015464 266.8749  93.1250 12.79324388    00
Epoch (UTC): 25 May 2017 23:01:25
Eccentricity: 0.0015464
inclination: 57.9867°
perigee height: 1332 km
apogee height: 1356 km
right ascension of ascending node: 83.8506°
argument of perigee: 266.8749°
revolutions per day: 12.79324388
mean anomaly at epoch: 93.1250°
orbit number at epoch: 0

The dashed part of the orbit path shows where the satellite is in the earth's shadow,  

DLR